Weather History for Liverpool, United Kingdom

Change the Weather History Date:

Monday, October 8, 2012

  Actual Average Record
Temperature  
Mean Temperature 50 °F -  
Max Temperature 59 °F 53 °F 66 °F (2010)
Min Temperature 42 °F 44 °F 42 °F (1998)
Degree Days  
Heating Degree Days 14    
Moisture  
Dew Point 47 °F    
Average Humidity 86    
Maximum Humidity 100    
Minimum Humidity 67    
Precipitation  
Precipitation 0.00 in - - ()
Sea Level Pressure  
Sea Level Pressure 29.99 in    
Wind  
Wind Speed 7 mph ()    
Max Wind Speed 13 mph    
Max Gust Speed -    
Visibility 5.5 miles    
Events Rain    
Averages and records for this station are not official NWS values.
T = Trace of Precipitation, MM = Missing Value Source: Averaged Metar Reports

Daily Weather History Graph

Daily Weather History Graph

Search for Another Location

Airport:

Trip Planner

Search our weather history database for the weather conditions in past years. The results will help you decide how hot, cold, wet, or windy it might be!

Date:

Astronomy

Oct. 08, 2012 Rise Set
Actual Time 7:26 AM BST 6:30 PM BST
Civil Twilight 6:51 AM BST 7:05 PM BST
Nautical Twilight 6:10 AM BST 7:45 PM BST
Astronomical Twilight 5:29 AM BST 8:26 PM BST
Moon 11:59 PM BST (10/8) 3:03 PM BST (10/8)
Length of Visible Light 12h 14m
Length of Day
11h 04m
Waning Gibbous, 48% of the Moon is Illuminated
Oct 8
Waning Gibbous
Oct 15
New
Oct 22
First Quarter
Oct 29
Full
Nov 7
Last Quarter

Hourly Weather History & Observations

Time (BST) Temp. Windchill Dew Point Humidity Pressure Visibility Wind Dir Wind Speed Gust Speed Precip Events Conditions
12:20 AM 42.8 °F 38.6 °F 41.0 °F 93% 30.12 in - East 6.9 mph - N/A   Clear
12:50 AM 42.8 °F 38.0 °F 41.0 °F 93% 30.12 in - East 8.1 mph - N/A   Clear
1:20 AM 42.8 °F 38.0 °F 41.0 °F 93% 30.09 in - East 8.1 mph - N/A   Clear
1:50 AM 44.6 °F 40.2 °F 42.8 °F 93% 30.09 in - ENE 8.1 mph - N/A   Clear
2:20 AM 44.6 °F 40.2 °F 42.8 °F 93% 30.09 in - East 8.1 mph - N/A   Clear
2:50 AM 46.4 °F 42.4 °F 42.8 °F 87% 30.09 in - East 8.1 mph - N/A   Clear
3:20 AM 44.6 °F 40.7 °F 42.8 °F 93% 30.06 in 5.6 mi East 6.9 mph - N/A   Unknown
3:50 AM 44.6 °F 41.4 °F 44.6 °F 100% 30.06 in 5.6 mi East 5.8 mph - N/A   Unknown
4:50 AM 46.4 °F 42.4 °F 44.6 °F 93% 30.04 in 5.6 mi East 8.1 mph - N/A   Unknown
5:20 AM 46.4 °F 41.9 °F 44.6 °F 93% 30.04 in 5.6 mi East 9.2 mph - N/A   Partly Cloudy
5:50 AM 48.2 °F - 46.4 °F 93% 30.01 in 5.6 mi East 9.2 mph - N/A   Partly Cloudy
6:20 AM 48.2 °F - 46.4 °F 93% 30.01 in 5.6 mi East 9.2 mph - N/A   Partly Cloudy
6:50 AM 48.2 °F - 44.6 °F 87% 30.01 in 5.6 mi East 8.1 mph - N/A   Partly Cloudy
7:20 AM 46.4 °F 42.4 °F 44.6 °F 93% 30.01 in 3.1 mi ESE 8.1 mph - N/A   Haze
7:50 AM 48.2 °F - 46.4 °F 93% 29.98 in 3.1 mi ESE 9.2 mph - N/A Rain Light Rain
8:20 AM 48.2 °F - 46.4 °F 93% 29.98 in 3.7 mi East 8.1 mph - N/A   Partly Cloudy
8:50 AM 50.0 °F - 48.2 °F 94% 29.98 in 3.7 mi ESE 10.4 mph - N/A   Partly Cloudy
9:20 AM 50.0 °F - 48.2 °F 94% 29.98 in 3.7 mi East 10.4 mph - N/A   Partly Cloudy
9:50 AM 51.8 °F - 50.0 °F 94% 29.98 in 4.3 mi East 9.2 mph - N/A   Partly Cloudy
10:20 AM 51.8 °F - 50.0 °F 94% 29.98 in 4.3 mi ENE 9.2 mph - N/A   Partly Cloudy
10:50 AM 53.6 °F - 50.0 °F 88% 29.98 in 5.0 mi East 9.2 mph - N/A   Scattered Clouds
11:20 AM 55.4 °F - 50.0 °F 82% 29.98 in 5.0 mi ESE 9.2 mph - N/A   Scattered Clouds
11:50 AM 55.4 °F - 50.0 °F 82% 29.98 in 5.6 mi SE 9.2 mph - N/A   Partly Cloudy
12:20 PM 55.4 °F - 50.0 °F 82% 29.95 in 5.6 mi ESE 8.1 mph - N/A   Partly Cloudy
12:50 PM 57.2 °F - 51.8 °F 82% 29.95 in 5.6 mi ESE 6.9 mph - N/A   Partly Cloudy
1:20 PM 57.2 °F - 50.0 °F 77% 29.95 in 6.2 mi East 8.1 mph - N/A   Partly Cloudy
1:50 PM 57.2 °F - 51.8 °F 82% 29.95 in 6.2 mi East 6.9 mph - N/A   Partly Cloudy
2:20 PM 57.2 °F - 50.0 °F 77% 29.95 in 6.2 mi East 8.1 mph - N/A   Partly Cloudy
2:50 PM 57.2 °F - 50.0 °F 77% 29.95 in 6.2 mi East 6.9 mph - N/A   Partly Cloudy
3:20 PM 57.2 °F - 50.0 °F 77% 29.92 in 6.2 mi East 5.8 mph - N/A   Partly Cloudy
3:50 PM 57.2 °F - 50.0 °F 77% 29.92 in 6.2 mi Variable 3.5 mph - N/A   Partly Cloudy
4:20 PM 59.0 °F - 50.0 °F 72% 29.92 in 6.2 mi Variable 3.5 mph - N/A   Partly Cloudy
4:50 PM 59.0 °F - 48.2 °F 67% 29.92 in 6.2 mi Variable 3.5 mph - N/A   Partly Cloudy
5:20 PM 59.0 °F - 50.0 °F 72% 29.92 in 6.2 mi Calm Calm - N/A   Partly Cloudy
5:50 PM 57.2 °F - 48.2 °F 72% 29.92 in 6.2 mi Variable 1.2 mph - N/A   Partly Cloudy
6:20 PM 55.4 °F - 48.2 °F 77% 29.92 in 6.2 mi Variable 2.3 mph - N/A   Partly Cloudy
6:50 PM 55.4 °F - 48.2 °F 77% 29.95 in 6.2 mi NW 4.6 mph - N/A   Partly Cloudy
7:20 PM 55.4 °F - 50.0 °F 82% 29.95 in 6.2 mi NNW 5.8 mph - N/A   Scattered Clouds
7:50 PM 53.6 °F - 48.2 °F 82% 29.95 in 6.2 mi NNE 6.9 mph - N/A   Scattered Clouds
8:20 PM 51.8 °F - 46.4 °F 82% 29.95 in 6.2 mi NE 8.1 mph - N/A   Scattered Clouds
8:50 PM 50.0 °F - 46.4 °F 87% 29.95 in 6.2 mi ENE 6.9 mph - N/A   Partly Cloudy
9:20 PM 50.0 °F - 46.4 °F 87% 29.95 in 6.2 mi NE 8.1 mph - N/A   Partly Cloudy
9:50 PM 50.0 °F - 46.4 °F 87% 29.98 in 6.2 mi NE 12.7 mph - N/A   Partly Cloudy
10:20 PM 48.2 °F - 44.6 °F 87% 29.98 in 6.2 mi NE 11.5 mph - N/A   Partly Cloudy
10:50 PM 46.4 °F 41.9 °F 44.6 °F 93% 29.98 in - ENE 9.2 mph - N/A   Clear
11:20 PM 46.4 °F 41.1 °F 44.6 °F 93% 29.98 in - NE 11.5 mph - N/A   Clear
11:50 PM 46.4 °F 41.5 °F 44.6 °F 93% 29.98 in - ENE 10.4 mph - N/A   Clear